THOR ABLESTAR DEB

Satellite information

Favourite Embed

Satellite Type and Status

DEBRISIN ORBIT

Key statistics

Satellite THOR ABLESTAR DEB at a glance.

Uptime

23445

Days in orbit

Revolutions

≈ 14.4

Per day

Orbit

LEO

Low Earth Orbit

Inclination

66.3

Latest

Satellite identification and parameters

Extended collection of information and parameters for THOR ABLESTAR DEB.

Object identification

Identified? True

Debris? True

Object name: THOR ABLESTAR DEB

International designator: 1961-015FB

Object number (NORAD): 465

Object ID (CCSDS): 465

Country: UNITED STATES OF AMERICA (US)

Current information (Y/N): Y

RCS size: SMALL

Orbital parameters

Period: 100.038 minutes

Inclination: 66.3192 deg

SMA: 7138.43 km

Apoapsis: 779.733 km

Periapsis: 740.856 km

RAAN: 303.5238 deg

Eccentricy: 0.0027231

Argument of periapsis: 151.097 deg

Mean anomaly: 209.1645 deg

Mean motion: 14.39457152 rev/day

Mean motion (dot): 0.00001949 rev/day2

B* drag term: 0.00065053182 1/REarth

Two-line elements (TLE)

Creation date: Sept. 6, 2025, 2:09 a.m.

Reference frame: TEME

Reference center: EARTH

Epoch: Sept. 5, 2025, 9:49 p.m. UTC

TLE line 0: 0 THOR ABLESTAR DEB

TLE line 1: 1 00465U 61015FB 25248.90937201 .00001949 00000-0 65053-3 0 9995

TLE line 2: 2 00465 66.3192 303.5238 0027231 151.0970 209.1645 14.39457152305169

Live tracking on map

Real-time ground track for satellite THOR ABLESTAR DEB.

In-orbit conjunctions

A list of the most updated potential collisions computed for object THOR ABLESTAR DEB.

Target Orbit TCA Probability of collision Miss distance Type
CZ-6A DEB LEO 2025-01-24 23:42:27 0.0002384565 363.0 (m) DEBRIS
CZ-6A DEB LEO 2025-01-11 06:46:16 0.0001193733 531.0 (m) DEBRIS
DELTA 1 DEB LEO 2024-12-02 13:10:16 0.0004945686 54.0 (m) DEBRIS

Associated space launch

THOR ABLESTAR DEB was lifted into orbit during the mission ‘Thor DM-21 Ablestar | Transit 4A & Injun-1 & Solrad 3’, on board a Thor DM-21 Ablestar space rocket.

The launch took place on June 29, 1961, 4:23 a.m. from Space Launch Complex 17B.

For more information about the launch, click the button.

Launch to space Thor DM-21 Ablestar | Transit 4A & Injun-1 & Solrad 3
Thor DM-21 Ablestar | Transit 4A & Injun-1 & Solrad 3

Agency: N/A

Status: Launch Successful

Launch date: June 29, 1961, 4:23 a.m. UTC

Rocket: Thor DM-21 Ablestar

Launch pad: Space Launch Complex 17B

Location: Cape Canaveral SFS, FL, USA

...

Latest news about this satellite

There are no fresh news available about this satellite. Check back as we update our databases every day.


Newsletter sign-up

Weekly statistics, charts and insights to help you stay on top of the space industry.